Tracking 31027 objects as of 19-Jul-2025
HD Live streaming from Space Station
objects crossing your sky now

STARLINK-11339

Track STARLINK-11339 now!
10-day predictions
STARLINK-11339 is classified as:


NORAD ID: 61691
Int'l Code: 2024-195E
Perigee: 366.6 km
Apogee: 367.2 km
Inclination: 53.2 °
Period: 91.7 minutes
Semi major axis: 6737 km
RCS: Unknown
Launch date: October 30, 2024
Source: United States (US)
Launch site: AIR FORCE WESTERN TEST RANGE (AFWTR)
Your satellite tracking list
GALASSIA
Track 1 satellite(s)




NASA's NSSDC Master Catalog

Two Line Element Set (TLE):
1 61691U 24195E   25199.71097016 -.00001279  00000-0 -57093-5 0  9991
2 61691  53.1594  99.7622 0000454 107.9686 252.1381 15.69701209 42285
Source of the keplerian elements: AFSPC